Regional Weather Roundup
Issued by NWS

Home | Current Version | Previous Version | Graphics & Text | Print | Product List | Glossary On
Versions: 1 2 3 4 5 6 7 8 9 10 11 12 13 14 15 16 17 18 19 20 21 22 23 24 25 26 27 28 29 30 31 32 33 34 35 36 37 38 39 40 41 42 43 44 45 46 47 48 49 50
000
ASUS43 KFSD 291310
RWRSD

WEATHER ROUNDUP FOR SOUTH DAKOTA
NATIONAL WEATHER SERVICE SIOUX FALLS SD
800 AM CDT FRI JUL 29 2016

NOTE: "FAIR" INDICATES FEW OR NO CLOUDS BELOW 12,000 FEET WITH NO
SIGNIFICANT WEATHER AND/OR OBSTRUCTIONS TO VISIBILITY.


SDZ001>005-009-010-012>017-291400-
NORTHWEST AND NORTH CENTRAL SOUTH DAKOTA

CITY           SKY/WX    TMP DP  RH WIND       PRES   REMARKS
BUFFALO          N/A     60  59  96 SE7       30.06S
FAITH            N/A     60  58  92 CALM      30.11S
MOBRIDGE       CLOUDY    69  60  73 E3        30.06S
$$

SDZ012>016-024>037-041>051-057-063-072>074-291400-
SOUTHWEST AND SOUTH CENTRAL SOUTH DAKOTA

CITY           SKY/WX    TMP DP  RH WIND       PRES   REMARKS
RAPID CTY ARPT SUNNY     58  57  97 CALM      30.12F
PIERRE         CLOUDY    64  62  93 SW3       30.08S
CUSTER         SUNNY     54  51  90 CALM      30.22S
ELLSWORTH AFB  SUNNY     58  58 100 CALM      30.12S
PHILIP         FOG       58  58 100 SW3       30.10F VSB<1/4
PINE RIDGE     FOG       58  58 100 CALM      30.13S VSB<1/4
WINNER         CLOUDY    65  62  90 W5        30.11R
$$

SDZ004>011-016>023-039-040-291400-
NORTHEAST SOUTH DAKOTA

CITY           SKY/WX    TMP DP  RH WIND       PRES   REMARKS
ABERDEEN       MOSUNNY   66  60  81 SE3       30.09S
WATERTOWN      SUNNY     65  57  75 CALM      30.10R
BROOKINGS      SUNNY     61  57  87 CALM      30.10R
SISSETON         N/A     63  60  90 N5        30.08S
$$

SDZ017-020-022-023-036>040-048>070-291400-
SOUTHEAST SOUTH DAKOTA

CITY           SKY/WX    TMP DP  RH WIND       PRES   REMARKS
SIOUX FALLS    MOSUNNY   63  57  81 NE3       30.09R
HURON          MOSUNNY   65  58  78 E3        30.09S
CHAMBERLAIN    CLOUDY    65  65 100 CALM      30.10R FOG
MITCHELL       SUNNY     63  59  87 N3        30.10R
YANKTON        MOSUNNY   63  57  82 NE3       30.08R
$$

ABBREVIATIONS USED IN REMARKS
   TC - TEMPERATURE IN CELSIUS
  WCI - WIND CHILL INDEX
   HX - HEAT INDEX
  VSB - VISIBILITY





USA.gov is the U.S. government's official web portal to all federal, state and local government web resources and services.